Location: Noverd
(38.0910°N, 121.6877°W)
Time: 15:06:06
(UTC+00:00)

Envisat - Pass Details

Date: 15 April 2026
Orbit: 761 x 762 km, 98.4° (Epoch: 15 May)

Event Time Altitude Azimuth Distance (km) Brightness Sun altitude
Rises 09:43:21 0° 28° (NNE) 3,229 7.2 -37.0°
Reaches altitude 10° 09:46:09 10° 43° (NE) 2,299 6.2 -36.7°
Enters shadow 09:48:49 20° 74° (ENE) 1,692 5.1 -36.5°
